TimeEDT,TemperatureF,Dew PointF,Humidity,Sea Level PressureIn,VisibilityMPH,Wind Direction,Wind SpeedMPH,Gust SpeedMPH,PrecipitationIn,Events,Conditions,WindDirDegrees,DateUTC
12:53 AM,62.1,57.0,84,30.04,10.0,Calm,Calm,-,N/A,,Scattered Clouds,0,2013-05-03 04:53:00
1:53 AM,62.1,57.0,84,30.02,10.0,Calm,Calm,-,N/A,,Clear,0,2013-05-03 05:53:00
2:53 AM,63.0,55.9,78,30.00,10.0,Calm,Calm,-,N/A,,Clear,0,2013-05-03 06:53:00
4:53 AM,62.1,57.0,84,29.99,10.0,ESE,3.5,-,0.00,,Scattered Clouds,120,2013-05-03 08:53:00
5:53 AM,62.1,57.0,84,29.99,10.0,Calm,Calm,-,N/A,,Overcast,0,2013-05-03 09:53:00
6:53 AM,61.0,60.1,97,30.00,8.0,SSE,6.9,-,0.00,Rain,Light Rain,160,2013-05-03 10:53:00
7:53 AM,61.0,61.0,100,30.00,7.0,Calm,Calm,-,0.05,,Overcast,0,2013-05-03 11:53:00
8:53 AM,62.1,62.1,100,30.01,8.0,SE,5.8,-,N/A,,Overcast,140,2013-05-03 12:53:00
9:42 AM,62.6,62.6,100,30.01,10.0,SSE,5.8,-,N/A,,Overcast,150,2013-05-03 13:42:00
9:53 AM,63.0,63.0,100,30.00,10.0,SE,6.9,-,N/A,,Overcast,140,2013-05-03 13:53:00
10:53 AM,64.0,62.1,93,29.99,10.0,SE,9.2,-,N/A,,Overcast,130,2013-05-03 14:53:00
11:53 AM,66.0,60.1,81,29.98,10.0,SE,6.9,-,N/A,,Overcast,140,2013-05-03 15:53:00
12:53 PM,70.0,57.0,63,29.96,10.0,SSE,12.7,20.7,N/A,,Mostly Cloudy,150,2013-05-03 16:53:00
1:53 PM,71.1,55.0,57,29.94,10.0,SE,13.8,23.0,N/A,,Partly Cloudy,140,2013-05-03 17:53:00
2:53 PM,73.9,55.9,53,29.91,10.0,ESE,12.7,20.7,N/A,,Scattered Clouds,120,2013-05-03 18:53:00
3:53 PM,75.0,55.0,50,29.89,10.0,ESE,13.8,21.9,N/A,,Partly Cloudy,110,2013-05-03 19:53:00
4:53 PM,75.0,55.0,50,29.88,10.0,SE,11.5,21.9,N/A,,Partly Cloudy,140,2013-05-03 20:53:00
5:53 PM,75.0,52.0,44,29.87,10.0,SSE,11.5,24.2,N/A,,Clear,160,2013-05-03 21:53:00
6:53 PM,73.0,53.1,49,29.86,10.0,SE,13.8,21.9,N/A,,Clear,140,2013-05-03 22:53:00
7:53 PM,71.1,55.0,57,29.86,10.0,ESE,8.1,-,N/A,,Clear,120,2013-05-03 23:53:00
8:53 PM,69.1,53.1,57,29.87,10.0,ESE,9.2,-,N/A,,Partly Cloudy,120,2013-05-04 00:53:00
9:21 PM,68.0,53.6,60,29.89,10.0,SSW,5.8,-,N/A,Thunderstorm,Scattered Clouds,210,2013-05-04 01:21:00
9:33 PM,66.2,51.8,60,29.90,10.0,SW,5.8,-,N/A,,Mostly Cloudy,220,2013-05-04 01:33:00
9:53 PM,66.9,53.1,61,29.89,10.0,SSE,4.6,-,N/A,,Overcast,150,2013-05-04 01:53:00
10:53 PM,61.0,60.1,97,29.91,7.0,SSE,9.2,19.6,0.08,Rain,Light Rain,150,2013-05-04 02:53:00
11:53 PM,61.0,59.0,93,29.91,10.0,SE,5.8,-,0.02,,Overcast,130,2013-05-04 03:53:00